Preview of NWS' New Version of Forecast
This preview is not operational and should not be used for support decisions.

Regional Weather Roundup (RWR)

Issued by National Weather Service (NWS)

                            
000
ASUS45 KCYS 231510
RWRWY 

WYOMING REGIONAL WEATHER ROUNDUP
NATIONAL WEATHER SERVICE CHEYENNE WY
900 AM MDT TUE JUL 23 2019

NOTE:  "FAIR" INDICATES FEW OR NO CLOUDS BELOW 12,000 FEET
WITH NO SIGNIFICANT WEATHER AND/OR OBSTRUCTIONS TO VISIBILITY.

WYZ001-231600-
...YELLOWSTONE NATIONAL PARK...
  
CITY           SKY/WX    TMP DP  RH WIND       PRES   REMARKS
LK YELLOWSTONE   N/A     57  46  66 CALM      30.52F                  
W YELLOWSTONE  NOT AVBL                                               

$$
WYZ002>013-054>058-071-098>099-231600-
...NORTHERN WYOMING...
  
CITY           SKY/WX    TMP DP  RH WIND       PRES   REMARKS
JACKSON        MOSUNNY   64  46  52 CALM      30.42F                  
CODY           SUNNY     77  48  35 SW8       30.27S                  
GREYBULL       SUNNY     77  54  44 S6        30.19S                  
WORLAND        SUNNY     72  56  57 W3        30.21S                  
SHERIDAN       SUNNY     76  60  57 CALM      30.19F                  
BUFFALO        SUNNY     76  59  55 CALM      30.27S                  
GILLETTE       SUNNY     73  60  63 S10       30.24S                  
HULETT         FAIR      73  61  64 SW6       30.26R                  
NEWCASTLE      FAIR      70  54  56 SE12      30.28S                  

$$
WYZ014>020-022>026-101>103-231600-
...CENTRAL WYOMING...
  
CITY           SKY/WX    TMP DP  RH WIND       PRES   REMARKS
BIG PINEY      SUNNY     68  45  43 NE7       30.45F                  
PINEDALE       SUNNY     64  46  52 NW5       30.46F                  
DUBOIS         FAIR      64  43  45 W15       30.43S                  
LANDER         SUNNY     67  51  56 SE7       30.34S                  
RIVERTON       SUNNY     72  49  44 CALM      30.33S                  
CASPER         SUNNY     71  52  50 SW10      30.32R                  
DOUGLAS        SUNNY     70  55  59 CALM      30.31F                  

$$
WYZ021-027>030-104>119-231600-
...SOUTHERN WYOMING...
  
CITY           SKY/WX    TMP DP  RH WIND       PRES   REMARKS
EVANSTON       SUNNY     66  43  43 E5        30.42S                  
KEMMERER       SUNNY     72  43  35 NE7       30.45R                  
FORT BRIDGER   NOT AVBL                                               
ROCK SPRINGS   SUNNY     68  45  43 NE6       30.40S                  
DIXON          FAIR      65  44  46 E5        30.43S                  
RAWLINS        SUNNY     66  48  52 E7        30.43S                  
SARATOGA       FAIR      64  46  52 SE6       30.45F                  
LARAMIE        SUNNY     65  47  52 SW3       30.45S                  
CHEYENNE       SUNNY     65  56  72 SW6       30.37F                  
TORRINGTON     SUNNY     68  57  68 SE14      30.27F                  
PINE BLUFFS    FAIR      68  55  64 S8        30.34F                  

$$